SCP
-0 -0 0 0 0 -0 0 0 0 0 0 0 0 0 0 0 0 0 0 0 0 0 0 0 0 0 0 0 0 0 0 0 0 0 0 0 0 0 0 0 0 0 0
-0 -0 -0 -0 -0 -0 0 -0 0 0 0 0 0 0 0 0 0 0 0 0 0 0 0 0 0 0 0 0 0 0 0 0 0 0 0 0 0 0 0 0 0 0 0
-0 -0 -0 0 0 -0 -0 -0 -0 -0 0 0 0 0 0 0 0 0 0 0 0 0 0 0 0 0 0 0 0 0 0 0 0 0 0 0 0 0 0 0 0 0 0
-0 -0 -0 0 0 0 -0 -0 -0 -0 -0 -0 0 0 0 0 0 0 0 0 0 0 0 0 0 0 0 0 0 0 0 0 0 0 0 0 0 0 0 0 0 0 0
-0 -0 -0 0 -0 -0 -0 -0 -0 -0 -0 -0 0 0 0 0 0 0 0 0 0 0 0 0 0 0 0 0 0 0 0 0 0 0 0 0 0 0 0 0 0 0 0
-0 -0 -0 -0 -0 -0 -0 -0 -0 -0 -0 -0 0 0 0 0 0 0 0 0 0 0 0 0 0 0 0 0 0 0 0 0 0 0 0 0 0 0 0 0 0 0 0
-0 -0 -0 -0 -0 -0 -0 -0 -0 -0 -0 -0 -0 0 0 0 -0 -0 0 0 0 0 0 0 0 0 0 0 0 0 0 0 0 0 0 0 0 0 0 0 0 0 0
-0 -0 -0 -0 -0 -0 -0 -0 -0 -0 -0 0 0 0 0 0 0 0 0 0 0 0 0 0 0 0 0 0 0 0 0 0 0 0 0 0 0 0 0 0 0 0 0
-0 -0 -0 -0 -0 -0 -0 -0 -0 0 0 0 0 0 0 0 0 0 0 0 0 0 0 0 0 0 0 0 0 0 0 0 0 0 0 0 0 0 0 0 0 0 0
-0 -0 -0 0 -0 -0 0 0 0 0 0 0 0 0 0 0 0 0 0 0 0 0 0 0 0 0 0 0 0 0 0 0 0 0 0 0 0 0 0 0 0 0 0
-0 -0 0 0 0 0 0 0 0 0 0 0 0 0 0 0 0 0 0 0 0 0 0 0 0 0 0 0 0 0 0 0 0 0 0 0 0 0 0 0 0 0 0
-0 -0 0 0 0 0 0 0 0 0 0 0 0 0 0 0 0 0 0 0 0 0 0 0 0 0 0 0 0 0 0 0 0 0 0 0 0 0 0 0 0 0 0
-0 -0 -0 0 0 0 0 0 0 0 0 0 0 0 0 0 0 0 0 0 0 0 0 0 0 0 0 0 0 0 0 0 0 0 0 0 0 0 0 0 0 0 0
-0 -0 -0 -0 0 0 0 0 0 0 0 0 0 0 0 0 0 0 0 0 0 0 0 0 0 0 0 0 0 0 0 0 0 0 0 0 0 0 0 0 0 0 0
-0 -0 -0 0 0 0 0 0 0 0 0 0 0 0 0 0 0 0 0 0 0 0 0 0 0 0 0 0 0 0 0 0 0 0 0 0 0 0 0 0 0 0 0
-0 -0 0 0 0 0 0 0 0 0 0 0 0 0 0 0 0 0 0 0 0 0 0 0 0 0 0 0 0 0 0 0 0 0 0 0 0 0 0 0 0 0 0
-0 -0 -0 0 0 0 0 0 0 0 0 0 0 0 0 0 0 0 0 0 0 0 0 0 0 0 0 0 0 0 0 0 0 0 0 0 0 0 0 0 0 0 0
-0 -0 -0 0 0 0 0 0 0 0 0 0 0 0 0 0 0 0 0 0 0 0 0 0 0 0 0 0 0 0 0 0 0 0 0 0 0 0 0 0 0 0 0
-0 0 0 0 0 0 0 0 0 0 0 0 0 0 0 0 0 0 0 0 0 0 0 0 0 0 0 0 0 0 0 0 0 0 0 0 0 0 0 0 0 0 0
-0 -0 0 0 0 0 0 0 0 0 0 0 0 0 0 0 0 0 0 0 0 0 0 0 0 0 0 0 0 0 0 0 0 0 0 0 0 0 0 0 0 0 0
0 0 0 0 0 0 0 0 0 0 0 0 0 0 0 0 0 0 0 0 0 0 0 0 0 0 0 0 0 0 0 0 0 0 0 0 0 0 0 0 0 0 0
0 0 0 0 0 0 0 0 0 0 0 0 0 0 0 0 0 0 0 0 0 0 0 0 0 0 0 0 0 0 0 0 0 0 0 0 0 0 0 0 0 0 0
0 0 0 0 0 0 0 0 0 0 0 0 0 0 0 0 0 0 0 0 0 0 0 0 0 0 0 0 0 0 0 0 0 0 0 0 0 0 0 0 0 0 0
0 0 0 0 0 0 0 0 0 0 0 0 0 0 0 0 0 0 0 0 0 0 0 0 0 0 0 0 0 0 0 0 0 0 0 0 0 0 0 0 0 0 0
0 0 0 0 0 0 0 0 0 0 0 0 0 0 0 0 0 0 0 0 0 0 0 0 0 0 0 0 0 0 0 0 0 0 0 0 0 0 0 0 0 0 0
0 0 0 0 0 0 0 0 0 0 0 0 0 0 0 0 0 0 0 0 0 0 0 0 0 0 0 0 0 0 0 0 0 0 0 0 0 0 0 0 0 0 0
Wind_Speed_500mb
15 16 15 18 20 32 16 30 30 29 24 26 37 45 57 64 60 54 52 48 39 42 41 36 36 32 29 30 33 30 34 51 47 52 50 48 42 34 32 30 31 34 38
23 21 24 23 22 30 28 31 26 27 21 19 32 40 43 55 67 62 49 51 48 48 43 32 29 30 30 35 46 53 52 45 41 39 39 34 28 27 30 33 36 39 43
19 23 29 30 30 32 34 32 27 24 24 25 25 27 31 39 46 49 50 48 42 39 37 34 31 33 39 43 44 36 32 30 25 21 23 23 25 26 31 34 40 43 40
29 33 35 36 32 34 34 33 29 25 23 25 25 25 27 28 26 25 24 24 24 24 25 31 33 32 29 25 25 22 18 17 18 19 20 22 24 29 34 34 34 31 29
34 35 35 32 29 30 30 29 31 31 29 27 24 26 26 25 23 21 21 18 18 18 18 20 22 23 20 17 15 15 17 18 19 20 21 24 25 26 29 31 33 26 9
29 31 32 35 35 35 31 28 30 30 28 27 25 22 22 22 20 19 16 16 16 14 14 16 15 15 14 13 16 20 19 20 21 23 21 23 17 21 32 32 32 14 12
36 37 34 32 31 29 30 32 30 30 27 28 27 24 23 24 22 20 17 14 13 11 9 9 11 11 13 14 16 17 21 24 23 20 20 21 24 31 37 39 25 19 22
35 36 35 31 31 32 31 29 29 28 26 24 25 24 22 22 20 17 14 12 11 10 9 11 12 14 16 17 16 15 16 22 18 19 24 28 31 35 40 28 17 13 6
38 35 34 32 33 32 32 29 26 25 24 21 20 18 16 15 14 11 10 10 9 11 15 16 17 19 19 19 23 18 14 22 24 24 23 27 27 22 22 21 13 12 10
41 36 32 30 29 32 32 30 28 23 20 17 15 15 16 15 15 12 8 5 5 6 9 11 18 22 23 18 18 16 15 19 20 23 16 21 13 6 7 6 13 12 14
39 35 34 32 30 30 29 26 23 21 19 17 13 13 15 15 13 11 7 6 3 2 5 9 10 15 19 13 14 17 15 20 20 22 23 11 4 6 6 6 8 10 10
42 38 35 32 29 28 25 25 23 21 21 19 16 12 12 13 12 10 8 3 6 7 12 15 16 17 13 10 12 13 15 18 19 18 13 9 9 10 13 15 15 15 16
46 44 39 36 32 31 31 30 26 25 23 20 16 13 8 9 9 9 8 8 11 13 14 15 15 15 11 13 13 13 17 19 17 16 17 14 16 15 17 18 19 17 19
48 45 41 37 34 31 30 28 26 26 24 21 19 15 12 11 8 6 6 6 7 9 9 13 15 9 10 8 7 10 17 16 16 14 14 17 16 17 18 17 19 21 23
50 47 45 40 37 35 31 30 28 24 22 21 20 19 16 14 12 7 9 9 6 7 13 19 20 9 8 6 6 11 16 17 14 15 17 19 20 21 17 21 24 25 22
56 53 51 47 44 41 38 36 33 28 26 22 22 22 20 17 15 12 14 12 13 17 19 18 14 10 12 12 11 15 15 13 14 18 19 18 16 18 21 24 23 25 27
58 55 53 50 48 47 45 42 39 38 32 27 27 25 22 18 18 17 16 16 18 20 18 17 16 12 16 14 15 16 17 16 16 15 13 14 16 17 20 20 22 24 31
58 55 54 52 51 51 49 46 42 39 37 33 34 32 28 23 21 20 18 16 17 16 17 18 19 21 20 19 18 18 19 19 18 17 16 18 20 23 25 22 22 29 28
62 61 58 54 52 50 49 48 43 39 37 37 37 36 34 30 26 23 20 16 18 22 19 17 18 22 23 18 18 21 24 25 25 25 23 21 23 22 23 25 28 22 23
62 61 60 57 55 54 53 51 47 44 41 40 39 36 33 35 31 28 20 14 23 27 22 24 25 25 22 19 20 21 18 18 18 20 21 25 24 22 19 17 20 25 30
61 64 64 61 60 58 56 54 51 48 44 41 35 31 28 28 32 29 21 38 31 26 24 25 24 23 20 19 20 20 20 20 18 19 18 16 14 16 18 20 25 25 22
56 61 66 63 60 60 57 54 52 49 46 44 40 34 33 31 37 28 33 36 23 22 25 24 23 23 22 21 22 22 22 24 24 18 15 15 16 19 20 18 20 24 26
53 56 61 63 62 58 55 52 52 52 51 50 46 42 38 36 30 31 37 26 23 24 24 23 23 23 20 21 20 19 20 18 11 15 20 21 24 22 18 19 24 29 29
48 52 53 55 59 58 55 53 52 51 52 55 51 45 39 32 32 33 32 23 24 23 23 22 22 21 18 15 11 10 7 9 15 20 22 19 17 14 15 22 27 30 32
44 47 47 48 50 51 49 50 50 50 54 54 51 48 37 29 28 33 26 24 22 21 20 19 20 18 15 12 12 14 15 16 18 18 19 18 16 19 23 28 32 37 35
39 42 40 38 39 39 40 43 43 47 51 51 47 40 36 23 26 27 22 21 19 19 18 18 18 16 14 14 15 16 15 15 18 20 21 22 23 25 28 32 36 36 36
Wind_Direction_500mb
119 134 134 141 167 181 163 166 175 161 174 185 196 200 192 197 202 202 198 192 195 197 206 223 228 223 222 230 216 226 265 286 282 281 276 274 273 265 262 264 268 276 285
112 120 125 128 139 150 147 148 153 151 159 177 194 198 198 206 207 210 213 210 207 209 211 221 227 238 238 243 260 270 276 281 275 271 271 264 254 252 259 266 277 284 288
126 126 126 123 122 123 121 121 125 133 137 137 152 173 188 196 200 204 203 203 206 212 223 234 241 248 257 263 267 269 268 268 260 254 258 256 256 258 266 275 281 286 292
138 131 124 124 128 127 120 120 122 127 130 130 129 139 146 150 156 163 170 182 194 209 224 236 243 249 251 252 258 257 244 236 244 254 258 262 265 271 277 282 283 292 297
143 142 140 140 141 139 139 138 131 128 128 127 131 134 132 133 140 151 161 168 186 200 211 223 229 237 237 234 229 224 230 239 247 254 263 270 277 281 285 284 287 294 301
153 147 141 131 128 128 126 125 129 130 129 129 133 138 143 146 157 165 172 180 191 200 213 213 208 211 209 219 227 231 245 260 268 274 274 277 287 262 269 278 284 268 293
147 145 142 138 131 130 130 129 133 135 139 138 140 143 144 142 141 142 142 151 154 165 181 202 217 223 224 227 242 258 265 267 268 266 252 246 245 248 262 277 275 254 267
151 145 144 151 149 142 142 142 141 138 140 144 143 148 148 143 142 141 144 163 170 178 199 220 228 230 243 253 258 280 285 281 276 256 259 265 268 270 275 273 287 283 268
157 156 158 155 151 150 148 146 144 146 151 149 143 145 157 163 159 161 177 196 207 211 219 232 232 238 242 238 246 241 247 274 287 284 285 286 287 285 272 267 247 278 262
167 169 166 164 160 155 155 156 156 158 149 141 146 142 150 162 162 172 173 168 185 215 244 246 248 255 266 264 238 223 232 261 282 291 317 321 321 317 338 253 254 264 294
174 174 171 168 166 167 166 164 163 159 158 163 162 159 152 155 158 164 177 167 163 194 295 283 261 260 261 255 217 219 243 253 260 274 293 300 327 306 314 329 328 317 316
181 178 178 177 179 176 176 174 175 174 172 172 169 172 147 151 159 170 186 203 219 218 237 262 277 298 253 219 213 232 240 250 256 271 281 264 263 243 255 272 291 295 289
183 182 182 184 184 183 181 184 180 182 186 189 189 194 203 170 178 183 194 213 221 229 249 267 277 291 267 242 252 233 240 237 260 275 254 256 262 281 289 292 298 309 308
189 189 190 193 192 190 189 196 198 198 198 200 204 206 212 234 221 238 225 246 258 259 269 285 301 291 301 289 275 233 241 249 268 273 254 263 273 291 296 296 300 307 310
196 195 198 200 200 197 199 204 205 208 215 215 212 219 224 227 253 261 268 275 281 287 293 309 312 329 317 312 264 245 251 268 265 255 266 274 282 284 290 289 302 310 312
198 198 202 205 204 203 203 200 204 214 221 222 223 230 231 227 232 239 252 260 260 257 269 282 302 265 264 271 270 273 276 278 278 273 273 274 277 287 293 295 300 306 315
204 205 206 211 209 210 213 217 216 215 220 220 224 230 232 237 232 234 241 248 257 265 261 255 276 248 260 267 284 278 280 280 277 275 277 286 288 294 293 298 309 300 307
208 215 217 218 219 220 223 228 226 226 226 222 221 225 235 231 237 241 246 259 268 282 287 275 265 270 273 273 272 269 271 270 272 275 279 282 286 294 299 297 297 306 307
209 215 221 222 226 227 227 231 231 228 226 225 224 227 229 230 233 236 242 250 283 288 285 277 279 288 291 280 276 278 275 272 270 271 273 279 287 290 290 295 300 300 304
212 219 225 224 224 226 227 229 231 232 228 229 229 232 230 230 233 233 230 262 274 275 278 279 282 286 282 275 278 280 285 286 280 278 277 279 284 287 290 291 298 304 305
215 218 226 227 227 229 231 231 231 233 233 234 233 230 233 233 242 230 233 278 272 263 273 277 282 284 282 276 276 278 281 283 285 285 287 286 284 286 287 293 299 306 315
219 221 227 232 231 231 233 233 232 232 232 234 232 224 218 238 229 224 263 288 265 270 274 279 284 283 276 277 277 268 274 278 280 278 280 283 280 285 293 300 307 310 311
220 224 227 232 236 236 235 234 233 232 231 231 229 225 227 230 222 252 275 278 263 273 277 281 285 284 274 269 273 276 272 278 262 263 271 273 275 278 280 292 297 303 309
221 227 230 230 235 238 239 238 237 233 231 228 225 224 229 222 253 252 279 258 262 270 275 283 292 289 287 284 289 292 277 256 263 268 278 288 296 310 307 307 313 314 310
221 228 231 231 233 237 240 239 236 232 228 227 225 225 222 230 258 268 264 247 261 267 275 282 291 292 293 287 287 283 276 270 276 291 294 298 303 302 305 305 304 308 310
221 226 228 229 230 235 235 233 230 227 227 226 223 221 216 239 273 264 238 252 264 270 273 282 287 287 291 283 285 290 297 292 294 298 298 296 297 299 299 302 306 307 308
Wind_Speed_850mb
15 16 15 18 20 32 16 30 30 29 24 26 37 45 57 64 60 54 52 48 39 42 41 36 36 32 29 30 33 30 34 51 47 52 50 48 42 34 32 30 31 34 38
23 21 24 23 22 30 28 31 26 27 21 19 32 40 43 55 67 62 49 51 48 48 43 32 29 30 30 35 46 53 52 45 41 39 39 34 28 27 30 33 36 39 43
19 23 29 30 30 32 34 32 27 24 24 25 25 27 31 39 46 49 50 48 42 39 37 34 31 33 39 43 44 36 32 30 25 21 23 23 25 26 31 34 40 43 40
29 33 35 36 32 34 34 33 29 25 23 25 25 25 27 28 26 25 24 24 24 24 25 31 33 32 29 25 25 22 18 17 18 19 20 22 24 29 34 34 34 31 29
34 35 35 32 29 30 30 29 31 31 29 27 24 26 26 25 23 21 21 18 18 18 18 20 22 23 20 17 15 15 17 18 19 20 21 24 25 26 29 31 33 26 9
29 31 32 35 35 35 31 28 30 30 28 27 25 22 22 22 20 19 16 16 16 14 14 16 15 15 14 13 16 20 19 20 21 23 21 23 17 21 32 32 32 14 12
36 37 34 32 31 29 30 32 30 30 27 28 27 24 23 24 22 20 17 14 13 11 9 9 11 11 13 14 16 17 21 24 23 20 20 21 24 31 37 39 25 19 22
35 36 35 31 31 32 31 29 29 28 26 24 25 24 22 22 20 17 14 12 11 10 9 11 12 14 16 17 16 15 16 22 18 19 24 28 31 35 40 28 17 13 6
38 35 34 32 33 32 32 29 26 25 24 21 20 18 16 15 14 11 10 10 9 11 15 16 17 19 19 19 23 18 14 22 24 24 23 27 27 22 22 21 13 12 10
41 36 32 30 29 32 32 30 28 23 20 17 15 15 16 15 15 12 8 5 5 6 9 11 18 22 23 18 18 16 15 19 20 23 16 21 13 6 7 6 13 12 14
39 35 34 32 30 30 29 26 23 21 19 17 13 13 15 15 13 11 7 6 3 2 5 9 10 15 19 13 14 17 15 20 20 22 23 11 4 6 6 6 8 10 10
42 38 35 32 29 28 25 25 23 21 21 19 16 12 12 13 12 10 8 3 6 7 12 15 16 17 13 10 12 13 15 18 19 18 13 9 9 10 13 15 15 15 16
46 44 39 36 32 31 31 30 26 25 23 20 16 13 8 9 9 9 8 8 11 13 14 15 15 15 11 13 13 13 17 19 17 16 17 14 16 15 17 18 19 17 19
48 45 41 37 34 31 30 28 26 26 24 21 19 15 12 11 8 6 6 6 7 9 9 13 15 9 10 8 7 10 17 16 16 14 14 17 16 17 18 17 19 21 23
50 47 45 40 37 35 31 30 28 24 22 21 20 19 16 14 12 7 9 9 6 7 13 19 20 9 8 6 6 11 16 17 14 15 17 19 20 21 17 21 24 25 22
56 53 51 47 44 41 38 36 33 28 26 22 22 22 20 17 15 12 14 12 13 17 19 18 14 10 12 12 11 15 15 13 14 18 19 18 16 18 21 24 23 25 27
58 55 53 50 48 47 45 42 39 38 32 27 27 25 22 18 18 17 16 16 18 20 18 17 16 12 16 14 15 16 17 16 16 15 13 14 16 17 20 20 22 24 31
58 55 54 52 51 51 49 46 42 39 37 33 34 32 28 23 21 20 18 16 17 16 17 18 19 21 20 19 18 18 19 19 18 17 16 18 20 23 25 22 22 29 28
62 61 58 54 52 50 49 48 43 39 37 37 37 36 34 30 26 23 20 16 18 22 19 17 18 22 23 18 18 21 24 25 25 25 23 21 23 22 23 25 28 22 23
62 61 60 57 55 54 53 51 47 44 41 40 39 36 33 35 31 28 20 14 23 27 22 24 25 25 22 19 20 21 18 18 18 20 21 25 24 22 19 17 20 25 30
61 64 64 61 60 58 56 54 51 48 44 41 35 31 28 28 32 29 21 38 31 26 24 25 24 23 20 19 20 20 20 20 18 19 18 16 14 16 18 20 25 25 22
56 61 66 63 60 60 57 54 52 49 46 44 40 34 33 31 37 28 33 36 23 22 25 24 23 23 22 21 22 22 22 24 24 18 15 15 16 19 20 18 20 24 26
53 56 61 63 62 58 55 52 52 52 51 50 46 42 38 36 30 31 37 26 23 24 24 23 23 23 20 21 20 19 20 18 11 15 20 21 24 22 18 19 24 29 29
48 52 53 55 59 58 55 53 52 51 52 55 51 45 39 32 32 33 32 23 24 23 23 22 22 21 18 15 11 10 7 9 15 20 22 19 17 14 15 22 27 30 32
44 47 47 48 50 51 49 50 50 50 54 54 51 48 37 29 28 33 26 24 22 21 20 19 20 18 15 12 12 14 15 16 18 18 19 18 16 19 23 28 32 37 35
39 42 40 38 39 39 40 43 43 47 51 51 47 40 36 23 26 27 22 21 19 19 18 18 18 16 14 14 15 16 15 15 18 20 21 22 23 25 28 32 36 36 36
Wind_Direction_850mb
119 134 134 141 167 181 163 166 175 161 174 185 196 200 192 197 202 202 198 192 195 197 206 223 228 223 222 230 216 226 265 286 282 281 276 274 273 265 262 264 268 276 285
112 120 125 128 139 150 147 148 153 151 159 177 194 198 198 206 207 210 213 210 207 209 211 221 227 238 238 243 260 270 276 281 275 271 271 264 254 252 259 266 277 284 288
126 126 126 123 122 123 121 121 125 133 137 137 152 173 188 196 200 204 203 203 206 212 223 234 241 248 257 263 267 269 268 268 260 254 258 256 256 258 266 275 281 286 292
138 131 124 124 128 127 120 120 122 127 130 130 129 139 146 150 156 163 170 182 194 209 224 236 243 249 251 252 258 257 244 236 244 254 258 262 265 271 277 282 283 292 297
143 142 140 140 141 139 139 138 131 128 128 127 131 134 132 133 140 151 161 168 186 200 211 223 229 237 237 234 229 224 230 239 247 254 263 270 277 281 285 284 287 294 301
153 147 141 131 128 128 126 125 129 130 129 129 133 138 143 146 157 165 172 180 191 200 213 213 208 211 209 219 227 231 245 260 268 274 274 277 287 262 269 278 284 268 293
147 145 142 138 131 130 130 129 133 135 139 138 140 143 144 142 141 142 142 151 154 165 181 202 217 223 224 227 242 258 265 267 268 266 252 246 245 248 262 277 275 254 267
151 145 144 151 149 142 142 142 141 138 140 144 143 148 148 143 142 141 144 163 170 178 199 220 228 230 243 253 258 280 285 281 276 256 259 265 268 270 275 273 287 283 268
157 156 158 155 151 150 148 146 144 146 151 149 143 145 157 163 159 161 177 196 207 211 219 232 232 238 242 238 246 241 247 274 287 284 285 286 287 285 272 267 247 278 262
167 169 166 164 160 155 155 156 156 158 149 141 146 142 150 162 162 172 173 168 185 215 244 246 248 255 266 264 238 223 232 261 282 291 317 321 321 317 338 253 254 264 294
174 174 171 168 166 167 166 164 163 159 158 163 162 159 152 155 158 164 177 167 163 194 295 283 261 260 261 255 217 219 243 253 260 274 293 300 327 306 314 329 328 317 316
181 178 178 177 179 176 176 174 175 174 172 172 169 172 147 151 159 170 186 203 219 218 237 262 277 298 253 219 213 232 240 250 256 271 281 264 263 243 255 272 291 295 289
183 182 182 184 184 183 181 184 180 182 186 189 189 194 203 170 178 183 194 213 221 229 249 267 277 291 267 242 252 233 240 237 260 275 254 256 262 281 289 292 298 309 308
189 189 190 193 192 190 189 196 198 198 198 200 204 206 212 234 221 238 225 246 258 259 269 285 301 291 301 289 275 233 241 249 268 273 254 263 273 291 296 296 300 307 310
196 195 198 200 200 197 199 204 205 208 215 215 212 219 224 227 253 261 268 275 281 287 293 309 312 329 317 312 264 245 251 268 265 255 266 274 282 284 290 289 302 310 312
198 198 202 205 204 203 203 200 204 214 221 222 223 230 231 227 232 239 252 260 260 257 269 282 302 265 264 271 270 273 276 278 278 273 273 274 277 287 293 295 300 306 315
204 205 206 211 209 210 213 217 216 215 220 220 224 230 232 237 232 234 241 248 257 265 261 255 276 248 260 267 284 278 280 280 277 275 277 286 288 294 293 298 309 300 307
208 215 217 218 219 220 223 228 226 226 226 222 221 225 235 231 237 241 246 259 268 282 287 275 265 270 273 273 272 269 271 270 272 275 279 282 286 294 299 297 297 306 307
209 215 221 222 226 227 227 231 231 228 226 225 224 227 229 230 233 236 242 250 283 288 285 277 279 288 291 280 276 278 275 272 270 271 273 279 287 290 290 295 300 300 304
212 219 225 224 224 226 227 229 231 232 228 229 229 232 230 230 233 233 230 262 274 275 278 279 282 286 282 275 278 280 285 286 280 278 277 279 284 287 290 291 298 304 305
215 218 226 227 227 229 231 231 231 233 233 234 233 230 233 233 242 230 233 278 272 263 273 277 282 284 282 276 276 278 281 283 285 285 287 286 284 286 287 293 299 306 315
219 221 227 232 231 231 233 233 232 232 232 234 232 224 218 238 229 224 263 288 265 270 274 279 284 283 276 277 277 268 274 278 280 278 280 283 280 285 293 300 307 310 311
220 224 227 232 236 236 235 234 233 232 231 231 229 225 227 230 222 252 275 278 263 273 277 281 285 284 274 269 273 276 272 278 262 263 271 273 275 278 280 292 297 303 309
221 227 230 230 235 238 239 238 237 233 231 228 225 224 229 222 253 252 279 258 262 270 275 283 292 289 287 284 289 292 277 256 263 268 278 288 296 310 307 307 313 314 310
221 228 231 231 233 237 240 239 236 232 228 227 225 225 222 230 258 268 264 247 261 267 275 282 291 292 293 287 287 283 276 270 276 291 294 298 303 302 305 305 304 308 310
221 226 228 229 230 235 235 233 230 227 227 226 223 221 216 239 273 264 238 252 264 270 273 282 287 287 291 283 285 290 297 292 294 298 298 296 297 299 299 302 306 307 308